Regional Weather Roundup
Issued by NWS

Home | Current Version | Previous Version | Text Only | Print | Product List | Glossary Off
Versions: 1 2 3 4 5 6 7 8 9 10 11 12 13 14 15 16 17 18 19 20 21 22 23 24 25 26 27 28

000
ASUS45 KCYS 210110
RWRWY

WYOMING REGIONAL WEATHER ROUNDUP
NATIONAL WEATHER SERVICE CHEYENNE WY
700 PM MDT FRI APR 20 2018

NOTE:  "FAIR" INDICATES FEW OR NO CLOUDS BELOW 12,000 FEET
WITH NO SIGNIFICANT WEATHER AND/OR OBSTRUCTIONS TO VISIBILITY.

WYZ001-210200-
YELLOWSTONE NATIONAL PARK

CITY           SKY/WX    TMP DP  RH WIND       PRES   REMARKS
LK YELLOWSTONE   N/A     48  20  32 VRB5      30.14R
W YELLOWSTONE  NOT AVBL

$$
WYZ002>013-054>058-071-098>099-210200-
NORTHERN WYOMING

CITY           SKY/WX    TMP DP  RH WIND       PRES   REMARKS
JACKSON        FAIR      58  20  22 N14       30.04R
CODY           FAIR      57  31  37 N23G29    30.06R
GREYBULL       FAIR      62  35  36 W8        29.98R
WORLAND        FAIR      58  34  40 S14       29.98R
SHERIDAN       FAIR      56  33  42 SE13      30.07S
BUFFALO        CLOUDY    49  31  49 SE12      30.12R
GILLETTE       CLOUDY    45  35  68 SE22      30.12R
HULETT         CLOUDY    48  36  61 S15       30.12R
NEWCASTLE      MOCLDY    37  32  81 SE16G23   30.17R WCI  28

$$
WYZ014>020-022>026-101>103-210200-
CENTRAL WYOMING

CITY           SKY/WX    TMP DP  RH WIND       PRES   REMARKS
BIG PINEY      CLOUDY    54  23  30 E14       30.03R
PINEDALE       FAIR      52  25  35 NE20G26   30.05R
DUBOIS         CLOUDY    52  21  30 CALM      30.05R
LANDER         CLOUDY    48  31  51 E8        30.04R
RIVERTON       CLOUDY    48  31  51 E18       30.05R
CASPER         LGT RAIN  37  36  96 E13       30.08R WCI  29
DOUGLAS        LGT RAIN  37  36  96 SE15      30.10R WCI  28

$$
WYZ021-027>030-104>119-210200-
SOUTHERN WYOMING

CITY           SKY/WX    TMP DP  RH WIND       PRES   REMARKS
EVANSTON       CLOUDY    52  29  41 NW20G29   30.03S
KEMMERER       FAIR      52  23  32 N10G31    30.01S
FORT BRIDGER   CLOUDY    51  34  53 N12G23    30.04R
ROCK SPRINGS   CLOUDY    40  30  67 E13       30.05R WCI  32
DIXON          CLOUDY    44  31  61 N21G30    29.98R
RAWLINS        LGT RAIN  39  32  76 N17       30.03R WCI  30
SARATOGA       RAIN      34  34 100 W5        30.00R WCI  30
LARAMIE        CLOUDY    33  31  92 E10       29.99S WCI  25
CHEYENNE       LGT SNOW  33  33 100 SE16      30.04R FOG     WCI  23
TORRINGTON     CLOUDY    37  37 100 E10       30.11R WCI  30
PINE BLUFFS    CLOUDY    34  34 100 MISG      30.07S

$$




USA.gov is the U.S. government's official web portal to all federal, state and local government web resources and services.